FALCON 9 DEB (55442 NORAD) Tracking and Keplerian Element Data

This shows tracking and keplerian element data for the satellite.

Feedback or suggestion? Click here.




ElementValue
Catalog55442
NameFALCON 9 DEB
Epoch Orbit527
Epoch Day62.92900194
Epoch Year2023
RAAN359.9296
Inclination70.005
Eccentricity0.0010193
Argument of Perigee181.9496
Mean Anonmoly178.1676
Mean Motion15.96318139
Decay Rate0.00506342
L11 55442U 23014BD 23062.92900194 .00506342 10974-3 12096-2 0 9991
L22 55442 70.0050 359.9296 0010193 181.9496 178.1676 15.96318139 5275



Live tracking and technical data element details for FALCON 9 DEB (NORAD 55442). FALCON 9 DEB can be tracked NOW for your location showing map with azimuth and elevation plus other details from your city location.







IsCatalogInMostPopularTable: catalog: 55442, numindb: -1

Insert: records affected: 1


GetName: 55442 FALCON 9 DEB

Hit Count: inserted at: Mon, 05 Jun 2023 20:51:21 GMT